Weather observations for the past three days for
The Florida Keys - Marathon International Airport
Metric (Imperial)
Date Time (edt) Wind (kph) Vis. (km) Weather Sky Cond. Temperature (ºC) Relative Humidity Wind Chill (°C) Heat Index (°C) Pressure Precipitation (cm)
Air Dwpt 6 hour altimeter (cm) sea level (mb) 1 hr 3 hr 6 hr
Max. Min.
18 12:53 SE 17 16.09 A Few Clouds FEW025 31.7 25 68% 39 76.35 1017.8
18 11:53 SE 17 16.09 Fair CLR 31.7 25 68% 39 76.35 1017.7
18 10:53 SE 13 16.09 Partly Cloudy FEW024 SCT037 31.7 25.6 70% 40 76.35 1017.9
18 09:53 SE 17 16.09 Fair CLR 31.1 25 70% 38 76.35 1017.8
18 08:53 SE 15 16.09 Fair CLR 30.6 25 72% 37 76.33 1017.5
18 07:53 SE 17 16.09 Fair CLR 30 25.6 30 28.9 77% 37 76.3 1017.2
18 06:53 E 20 G 39 16.09 Partly Cloudy FEW021 SCT026 29.4 25.6 80% 36 76.25 1016.5
18 05:53 SE 13 16.09 Fair CLR 29.4 25.6 80% 36 76.23 1016.0
18 04:53 SE 11 16.09 Fair CLR 29.4 25 77% 35 76.2 1015.8
18 03:53 SE 15 16.09 A Few Clouds FEW016 29.4 26.1 82% 36 76.17 1015.6
18 02:53 E 17 16.09 Fair CLR 29.4 25.6 80% 36 76.2 1015.9
18 01:53 E 15 16.09 Fair CLR 29.4 25 30.6 29.4 77% 35 76.23 1016.1
18 00:53 NE 9 16.09 Fair CLR 30 25.6 77% 37 76.3 1017.2
17 23:53 E 17 16.09 Fair CLR 30 25 75% 36 76.35 1017.8
17 22:53 NE 13 16.09 Fair CLR 29.4 25 77% 35 76.38 1018.1
17 21:53 E 13 16.09 Fair CLR 30 25 75% 36 76.4 1018.4
17 20:53 NE 13 16.09 Fair CLR 30 25 75% 36 76.35 1018.0
17 19:53 E 15 16.09 Fair CLR 30.6 24.4 32.2 30.6 70% 36 76.3 1017.2
17 18:53 E 13 16.09 Fair CLR 31.1 24.4 68% 37 76.25 1016.5
17 17:53 E 15 16.09 Fair CLR 31.7 24.4 65% 38 76.23 1016.2
17 16:53 SE 15 16.09 Fair CLR 31.7 23.9 63% 37 76.25 1016.4
17 15:53 E 20 16.09 A Few Clouds FEW023 31.7 25.6 70% 40 76.25 1016.4
17 14:53 E 19 16.09 Fair CLR 32.2 25 66% 39 76.28 1016.9
17 13:53 SE 15 16.09 Fair CLR 31.7 25 32.2 29.4 68% 39 76.33 1017.4
17 12:53 E 17 16.09 A Few Clouds FEW027 31.7 25 68% 39 76.35 1017.8
17 11:53 E 20 16.09 A Few Clouds FEW027 31.7 25 68% 39 76.38 1018.1
17 10:53 E 19 16.09 Fair CLR 31.1 25 70% 38 76.35 1018.0
17 09:53 E 13 16.09 A Few Clouds FEW080 31.1 25 70% 38 76.35 1017.7
17 07:53 E 13 16.09 Fair CLR 29.4 24.4 30 29.4 75% 35 76.3 1017.1
17 06:53 E 17 16.09 Fair CLR 29.4 24.4 75% 35 76.23 1016.3
17 05:53 E 17 16.09 A Few Clouds FEW023 29.4 25 77% 35 76.2 1015.9
17 04:53 E 15 16.09 Fair CLR 29.4 25 77% 35 76.17 1015.6
17 03:53 E 15 16.09 A Few Clouds FEW024 29.4 24.4 75% 35 76.15 1015.3
17 02:53 E 19 16.09 A Few Clouds FEW027 29.4 23.9 72% 34 76.2 1015.7
17 01:53 E 19 16.09 A Few Clouds FEW024 30 23.9 30.6 29.4 70% 35 76.23 1016.0
17 00:53 E 19 16.09 Fair CLR 30 25 75% 36 76.28 1016.8
16 23:53 E 17 16.09 Fair CLR 30 25.6 77% 37 76.33 1017.6
16 22:53 E 15 16.09 Fair CLR 30 24.4 72% 36 76.35 1017.8
16 21:53 E 17 16.09 Fair CLR 30 23.9 70% 35 76.35 1017.7
16 20:53 E 15 16.09 Fair CLR 30 24.4 72% 36 76.35 1017.9
16 19:53 E 13 16.09 Fair CLR 30.6 23.9 32.8 30.6 67% 36 76.28 1016.9
16 18:53 E 17 16.09 A Few Clouds FEW027 31.1 23.9 66% 37 76.25 1016.4
16 17:53 E 17 16.09 A Few Clouds FEW025 31.7 25 68% 39 76.23 1016.3
16 16:53 E 19 16.09 A Few Clouds FEW024 31.7 25 68% 39 76.2 1015.9
16 15:53 E 17 16.09 Fair CLR 32.2 25.6 68% 40 76.23 1016.2
16 13:53 E 19 16.09 Fair CLR 32.2 25 32.2 29.4 66% 39 76.33 1017.4
16 12:53 E 15 16.09 A Few Clouds FEW023 31.7 25.6 70% 40 76.35 1017.8
16 11:53 E 15 16.09 A Few Clouds FEW025 FEW032 FEW042 31.7 25.6 70% 40 76.38 1018.1
16 10:53 E 11 16.09 A Few Clouds FEW024 31.1 25.6 73% 39 76.38 1018.1
16 09:53 E 13 16.09 Fair CLR 31.1 25 70% 38 76.35 1017.7
16 08:53 E 13 16.09 A Few Clouds FEW022 30 25 75% 36 76.33 1017.5
16 07:53 SE 11 16.09 A Few Clouds FEW019 29.4 25.6 29.4 28.9 80% 36 76.28 1016.9
16 06:53 SE 11 16.09 Fair CLR 28.9 25.6 82% 35 76.23 1016.3
16 05:53 E 13 16.09 Fair CLR 28.9 25.6 82% 35 76.2 1015.8
16 04:53 SE 13 16.09 Fair CLR 29.4 25 77% 35 76.17 1015.4
16 03:53 E 11 16.09 Fair CLR 28.9 25.6 82% 35 76.17 1015.4
16 02:53 E 13 16.09 Fair CLR 28.9 25.6 82% 35 76.2 1015.9
16 01:53 E 11 16.09 Fair CLR 29.4 23.9 30.6 28.3 72% 34 76.28 1016.7
16 00:53 SE 15 G 31 16.09 A Few Clouds FEW021 28.9 25 80% 34 76.33 1017.5
15 23:53 E 9 16.09 Fair CLR 29.4 25.6 80% 36 76.33 1017.7
15 22:53 E 11 16.09 Fair CLR 29.4 25.6 80% 36 76.3 1017.1
15 21:53 E 15 G 37 16.09 A Few Clouds FEW024 30 25 75% 36 76.28 1016.7
15 19:53 SE 13 16.09 Partly Cloudy SCT023 30 25.6 32.2 30 77% 37 76.28 1016.8
15 18:53 E 15 16.09 A Few Clouds FEW020 30.6 25.6 75% 38 76.2 1015.7
15 17:53 E 19 16.09 A Few Clouds FEW021 31.1 26.1 75% 39 76.15 1015.3
15 16:53 SE 17 16.09 Fair CLR 31.7 25.6 70% 40 76.15 1015.3
15 15:53 E 15 16.09 Fair CLR 31.1 25.6 73% 39 76.25 1016.5
15 14:53 E 15 16.09 Fair CLR 31.7 26.1 72% 40 76.35 1017.7
15 13:53 E 19 16.09 Fair CLR 31.7 26.1 32.2 28.9 72% 40 76.33 1017.6
Date Time (edt) Wind (kph) Vis. (km) Weather Sky Cond. Air Dwpt Max. Min. Relative Humidity Wind Chill (°C) Heat Index (°C) altimeter (cm) sea level (mb) 1 hr 3 hr 6 hr
6 hour
Temperature (ºC) Pressure Precipitation (cm)